Погода в Верхней Санибе

Россия / Республика Северная Осетия — Алания     43°00′48″N   44°33′31″E
В апреле 2022 года жителям России запретили посещать сайт meteo.paraplan.net по решению Генеральной прокуратуры. Аудитория сайта уменьшилась в 10 раз. Владельцы сайта не видят смысла в поддержке погодного сервера в таких условиях. Сайт будет закрыт в октябре.
темп.,
°C
ветер,
м/с
пор.,
м/с
влажн.,
%
обл.,
%
осадки,
мм/ч
давл.,
гПа
погр.,
м
25 сентября, вс
вс2500:00+8ю118187 0.1 101915
03:00+9юз118092 0.1 102018
06:00+8ссв1289100 0.1 1021181
09:00+9всв238376 0.2 1022515
12:00+13св22601 0.0 1020881
15:00+14ссв325777 0.0 10201212
18:00+12св236987 0.0 1022211
21:00+11св117241 0.0 1024122
26 сентября, пн
пн2600:00+8ю22710 0.0 102417
03:00+8ю22570 0.0 102317
06:00+7ююз11570 0.0 102313
09:00+12с21540 0.0 1022396
12:00+16с22490 0.0 1020872
15:00+18с32480 0.0 10181038
18:00+13вюв11651 0.0 101925
21:00+11ююз226010 0.0 101914
27 сентября, вт
вт2700:00+11ю224758 0.0 101715
03:00+10ю22375 0.0 101615
06:00+10ю22330 0.0 101516
09:00+17ссв11335 0.0 1014229
12:00+20с21356 0.0 1012648
15:00+20с2137100 0.0 1011732
18:00+16ю114997 0.0 101112
21:00+15ю223592 0.0 101114
28 сентября, ср
ср2800:00+13ююз222646 0.0 101014
03:00+14ююз2124100 0.0 100813
06:00+13ю2226100 0.0 100912
09:00+20ссв102775 0.0 1008172
12:00+23с2125100 0.0 1007469
15:00+24с112465 0.0 1006640
18:00+17юз224121 0.0 100921
21:00+15ююз2246100 0.0 101119
29 сентября, чт
чт2900:00+14ю225199 0.0 101115
03:00+14ююз225228 0.0 101218
06:00+14ююз225270 0.0 101318
09:00+18сз224837 0.0 1014559
12:00+20ссз22424 0.0 10131178
15:00+21с21409 0.0 10131557
18:00+16ююв115842 0.1 101614
21:00+15ю226015 0.1 101629